Overview Statistics Trail Chart Weather Telemetry Raw packets
 

This is the latest recevied weather packets stored in our database for station/object N5JXS. If no packets are shown the sender has not sent any weather packets the latest 10 day(s).

<< 52 53 54 55 56 57 58 >>
Time Temp. Humidity Pressure Rain* Wind** Luminosity Snow
1788275992 16.67° C 65% 1027.8 hPa 0 mm - 53 W/m² -
1788275688 16.11° C 65% 1027.8 hPa 0 mm - 51 W/m² -
1788275387 15.56° C 69% 1027.8 hPa 0 mm - 55 W/m² -
1788275085 15.56° C 72% 1027.7 hPa 0 mm - 52 W/m² -
1788274783 15.56° C 71% 1027.7 hPa 0 mm - 44 W/m² -
1788274477 15.56° C 71% 1027.7 hPa 0 mm - 45 W/m² -
1788274172 15.56° C 71% 1027.7 hPa 0 mm - 45 W/m² -
1788273867 15.56° C 69% 1027.3 hPa 0 mm - 47 W/m² -
1788273563 15.56° C 71% 1027.5 hPa 0 mm - 53 W/m² -
1788273259 15° C 71% 1027.2 hPa 0 mm - 55 W/m² -
1788272955 15° C 73% 1027.3 hPa 0 mm - 47 W/m² -
1788272654 15° C 74% 1027.3 hPa 0 mm - 45 W/m² -
1788272350 15° C 76% 1027.3 hPa 0 mm - 39 W/m² -
1788272044 14.44° C 76% 1027 hPa 0 mm - 31 W/m² -
1788271743 14.44° C 78% 1027.3 hPa 0 mm - 23 W/m² -
1788271442 14.44° C 79% 1027.2 hPa 0 mm - 17 W/m² -
1788271136 14.44° C 77% 1027.3 hPa 0 mm - 13 W/m² -
1788270832 14.44° C 77% 1027.3 hPa 0 mm - 13 W/m² -
1788270528 14.44° C 78% 1027 hPa 0 mm - 12 W/m² -
1788270223 13.89° C 80% 1027 hPa 0 mm - 12 W/m² -
1788269917 13.89° C 82% 1027.3 hPa 0 mm - 10 W/m² -
1788269616 13.33° C 84% 1027 hPa 0 mm - 10 W/m² -
1788269315 13.33° C 84% 1026.7 hPa 0 mm - 9 W/m² -
1788269010 13.33° C 85% 1026.8 hPa 0 mm - 6 W/m² -
1788268704 13.33° C 85% 1026.7 hPa 0 mm - 6 W/m² -

* Rain latest hour (hover to see other rain measurements)
** Current wind speed in m/s (hover to see current wind gust speed)